owner,sensor,date,latitude,longitude,dew_point_temperature,qcFlag 
ADCP,ioos:station:wmo:42364:1,2013-11-03T20:30:00Z,29.0600,-88.0900,8.9,11111222 
ADCP,ioos:station:wmo:42364:1,2013-11-03T21:30:00Z,29.0600,-88.0900,8.9,11111222 
ADCP,ioos:station:wmo:42364:1,2013-11-03T22:30:00Z,29.0600,-88.0900,8.9,11111222 
ADCP,ioos:station:wmo:42364:1,2013-11-03T23:30:00Z,29.0600,-88.0900,8.9,11111222 
ADCP,ioos:station:wmo:42364:1,2013-11-04T00:30:00Z,29.0600,-88.0900,8.9,11111222 
ADCP,ioos:station:wmo:42364:1,2013-11-04T01:30:00Z,29.0600,-88.0900,8.9,11111222 
ADCP,ioos:station:wmo:42364:1,2013-11-04T02:30:00Z,29.0600,-88.0900,9.4,11111222 
ADCP,ioos:station:wmo:42364:1,2013-11-04T03:30:00Z,29.0600,-88.0900,10.0,11111222 
ADCP,ioos:station:wmo:42364:1,2013-11-04T04:30:00Z,29.0600,-88.0900,10.0,11111222 
ADCP,ioos:station:wmo:42364:1,2013-11-04T05:30:00Z,29.0600,-88.0900,9.4,11111222 
ADCP,ioos:station:wmo:42364:1,2013-11-04T06:30:00Z,29.0600,-88.0900,8.3,11111222 
ADCP,ioos:station:wmo:42364:1,2013-11-04T07:30:00Z,29.0600,-88.0900,10.0,11111222 
ADCP,ioos:station:wmo:42364:1,2013-11-04T08:30:00Z,29.0600,-88.0900,10.6,11111222 
ADCP,ioos:station:wmo:42364:1,2013-11-04T09:30:00Z,29.0600,-88.0900,10.6,11111222 
ADCP,ioos:station:wmo:42364:1,2013-11-04T10:30:00Z,29.0600,-88.0900,11.7,11111222 
ADCP,ioos:station:wmo:42364:1,2013-11-04T11:30:00Z,29.0600,-88.0900,11.7,11111222 
ADCP,ioos:station:wmo:42364:1,2013-11-04T12:30:00Z,29.0600,-88.0900,12.2,11111222 
ADCP,ioos:station:wmo:42364:1,2013-11-04T13:30:00Z,29.0600,-88.0900,11.1,11111222 
ADCP,ioos:station:wmo:42364:1,2013-11-04T14:30:00Z,29.0600,-88.0900,12.2,11111222 
ADCP,ioos:station:wmo:42364:1,2013-11-04T15:30:00Z,29.0600,-88.0900,13.3,11111222 
ADCP,ioos:station:wmo:42364:1,2013-11-04T16:30:00Z,29.0600,-88.0900,12.2,11111222 
ADCP,ioos:station:wmo:42364:1,2013-11-04T17:30:00Z,29.0600,-88.0900,14.4,11111222 
ADCP,ioos:station:wmo:42364:1,2013-11-04T18:30:00Z,29.0600,-88.0900,13.9,11111222 
ADCP,ioos:station:wmo:42364:1,2013-11-04T19:30:00Z,29.0600,-88.0900,15.0,11111222 
ADCP,ioos:station:wmo:42364:1,2013-11-04T20:30:00Z,29.0600,-88.0900,17.8,11111222 
ADCP,ioos:station:wmo:42364:1,2013-11-04T21:30:00Z,29.0600,-88.0900,16.7,11111222 
ADCP,ioos:station:wmo:42364:1,2013-11-04T22:30:00Z,29.0600,-88.0900,16.1,11111222 
ADCP,ioos:station:wmo:42364:1,2013-11-04T23:30:00Z,29.0600,-88.0900,17.2,11111222 
ADCP,ioos:station:wmo:42364:1,2013-11-05T00:30:00Z,29.0600,-88.0900,16.7,11111222 
ADCP,ioos:station:wmo:42364:1,2013-11-05T01:30:00Z,29.0600,-88.0900,16.1,11111222 
ADCP,ioos:station:wmo:42364:1,2013-11-05T02:30:00Z,29.0600,-88.0900,16.7,11111222 
ADCP,ioos:station:wmo:42364:1,2013-11-05T04:30:00Z,29.0600,-88.0900,17.2,11111222 
ADCP,ioos:station:wmo:42364:1,2013-11-05T05:30:00Z,29.0600,-88.0900,17.2,11111222 
ADCP,ioos:station:wmo:42364:1,2013-11-05T06:30:00Z,29.0600,-88.0900,17.8,11111222 
ADCP,ioos:station:wmo:42364:1,2013-11-05T07:30:00Z,29.0600,-88.0900,17.2,11111222 
ADCP,ioos:station:wmo:42364:1,2013-11-05T08:30:00Z,29.0600,-88.0900,17.2,11111222 
ADCP,ioos:station:wmo:42364:1,2013-11-05T09:30:00Z,29.0600,-88.0900,17.2,11111222 
ADCP,ioos:station:wmo:42364:1,2013-11-05T10:30:00Z,29.0600,-88.0900,17.8,11111222 
ADCP,ioos:station:wmo:42364:1,2013-11-05T11:30:00Z,29.0600,-88.0900,18.9,11111222 
ADCP,ioos:station:wmo:42364:1,2013-11-05T12:30:00Z,29.0600,-88.0900,18.3,11111222 
ADCP,ioos:station:wmo:42364:1,2013-11-05T13:30:00Z,29.0600,-88.0900,18.3,11111222 
ADCP,ioos:station:wmo:42364:1,2013-11-05T14:30:00Z,29.0600,-88.0900,18.3,11111222 
ADCP,ioos:station:wmo:42364:1,2013-11-05T15:30:00Z,29.0600,-88.0900,18.3,11111222 
ADCP,ioos:station:wmo:42364:1,2013-11-05T16:30:00Z,29.0600,-88.0900,18.3,11111222 
ADCP,ioos:station:wmo:42364:1,2013-11-05T17:30:00Z,29.0600,-88.0900,18.3,11111222 
ADCP,ioos:station:wmo:42364:1,2013-11-05T18:30:00Z,29.0600,-88.0900,18.3,11111222 
ADCP,ioos:station:wmo:42364:1,2013-11-05T19:30:00Z,29.0600,-88.0900,18.9,11111222 
ADCP,ioos:station:wmo:42364:1,2013-11-05T20:30:00Z,29.0600,-88.0900,18.9,11111222 
ADCP,ioos:station:wmo:42364:1,2013-11-05T21:30:00Z,29.0600,-88.0900,18.3,11111222 
ADCP,ioos:station:wmo:42364:1,2013-11-05T22:30:00Z,29.0600,-88.0900,18.3,11111222 
ADCP,ioos:station:wmo:42364:1,2013-11-05T23:30:00Z,29.0600,-88.0900,18.3,11111222 
ADCP,ioos:station:wmo:42364:1,2013-11-06T00:30:00Z,29.0600,-88.0900,17.8,11111222 
ADCP,ioos:station:wmo:42364:1,2013-11-06T01:30:00Z,29.0600,-88.0900,18.3,11111222 
ADCP,ioos:station:wmo:42364:1,2013-11-06T02:30:00Z,29.0600,-88.0900,17.8,11111222 
ADCP,ioos:station:wmo:42364:1,2013-11-06T03:30:00Z,29.0600,-88.0900,18.3,11111222 
ADCP,ioos:station:wmo:42364:1,2013-11-06T04:30:00Z,29.0600,-88.0900,18.9,11111222 
ADCP,ioos:station:wmo:42364:1,2013-11-06T05:30:00Z,29.0600,-88.0900,18.9,11111222 
ADCP,ioos:station:wmo:42364:1,2013-11-06T06:30:00Z,29.0600,-88.0900,18.3,11111222 
ADCP,ioos:station:wmo:42364:1,2013-11-06T07:30:00Z,29.0600,-88.0900,19.4,11111222 
ADCP,ioos:station:wmo:42364:1,2013-11-06T08:30:00Z,29.0600,-88.0900,19.4,11111222 
ADCP,ioos:station:wmo:42364:1,2013-11-06T09:30:00Z,29.0600,-88.0900,20.0,11111222 
ADCP,ioos:station:wmo:42364:1,2013-11-06T10:30:00Z,29.0600,-88.0900,20.6,11111222 
ADCP,ioos:station:wmo:42364:1,2013-11-06T11:30:00Z,29.0600,-88.0900,21.1,11111222 
ADCP,ioos:station:wmo:42364:1,2013-11-06T12:30:00Z,29.0600,-88.0900,20.6,11111222 
ADCP,ioos:station:wmo:42364:1,2013-11-06T13:30:00Z,29.0600,-88.0900,21.1,11111222 
ADCP,ioos:station:wmo:42364:1,2013-11-06T14:30:00Z,29.0600,-88.0900,20.6,11111222 
ADCP,ioos:station:wmo:42364:1,2013-11-06T15:30:00Z,29.0600,-88.0900,21.1,11111222 
ADCP,ioos:station:wmo:42364:1,2013-11-06T16:30:00Z,29.0600,-88.0900,21.1,11111222 
ADCP,ioos:station:wmo:42364:1,2013-11-06T17:30:00Z,29.0600,-88.0900,21.1,11111222 
ADCP,ioos:station:wmo:42364:1,2013-11-06T18:30:00Z,29.0600,-88.0900,20.6,11111222 
ADCP,ioos:station:wmo:42364:1,2013-11-06T19:30:00Z,29.0600,-88.0900,20.6,11111222 
ADCP,ioos:station:wmo:42364:1,2013-11-06T20:30:00Z,29.0600,-88.0900,21.1,11111222 
ADCP,ioos:station:wmo:42364:1,2013-11-06T21:30:00Z,29.0600,-88.0900,21.1,11111222 
ADCP,ioos:station:wmo:42364:1,2013-11-06T22:30:00Z,29.0600,-88.0900,20.6,11111222 
ADCP,ioos:station:wmo:42364:1,2013-11-06T23:30:00Z,29.0600,-88.0900,20.6,11111222 
ADCP,ioos:station:wmo:42364:1,2013-11-07T00:30:00Z,29.0600,-88.0900,20.6,11111222 
ADCP,ioos:station:wmo:42364:1,2013-11-07T01:30:00Z,29.0600,-88.0900,20.6,11111222 
ADCP,ioos:station:wmo:42364:1,2013-11-07T02:30:00Z,29.0600,-88.0900,21.1,11111222 
ADCP,ioos:station:wmo:42364:1,2013-11-07T03:30:00Z,29.0600,-88.0900,21.1,11111222 
ADCP,ioos:station:wmo:42364:1,2013-11-07T04:30:00Z,29.0600,-88.0900,21.1,11111222 
ADCP,ioos:station:wmo:42364:1,2013-11-07T05:30:00Z,29.0600,-88.0900,21.1,11111222 
ADCP,ioos:station:wmo:42364:1,2013-11-07T07:30:00Z,29.0600,-88.0900,21.7,11111222 
ADCP,ioos:station:wmo:42364:1,2013-11-07T08:30:00Z,29.0600,-88.0900,21.7,11111222 
ADCP,ioos:station:wmo:42364:1,2013-11-07T09:30:00Z,29.0600,-88.0900,21.7,11111222 
ADCP,ioos:station:wmo:42364:1,2013-11-07T10:30:00Z,29.0600,-88.0900,20.6,11111222 
ADCP,ioos:station:wmo:42364:1,2013-11-07T11:30:00Z,29.0600,-88.0900,21.1,11111222 
ADCP,ioos:station:wmo:42364:1,2013-11-07T12:30:00Z,29.0600,-88.0900,21.1,11111222 
ADCP,ioos:station:wmo:42364:1,2013-11-07T13:30:00Z,29.0600,-88.0900,20.6,11111222 
ADCP,ioos:station:wmo:42364:1,2013-11-07T14:30:00Z,29.0600,-88.0900,20.0,11111222 
ADCP,ioos:station:wmo:42364:1,2013-11-07T15:30:00Z,29.0600,-88.0900,18.3,11111222 
ADCP,ioos:station:wmo:42364:1,2013-11-07T16:30:00Z,29.0600,-88.0900,18.3,11111222 
ADCP,ioos:station:wmo:42364:1,2013-11-07T17:30:00Z,29.0600,-88.0900,17.8,11111222 
ADCP,ioos:station:wmo:42364:1,2013-11-07T18:30:00Z,29.0600,-88.0900,17.2,11111222 
ADCP,ioos:station:wmo:42364:1,2013-11-07T19:30:00Z,29.0600,-88.0900,16.7,11111222 
ADCP,ioos:station:wmo:42364:1,2013-11-07T21:30:00Z,29.0600,-88.0900,14.4,11111222 
ADCP,ioos:station:wmo:42364:1,2013-11-07T22:30:00Z,29.0600,-88.0900,12.2,11111222 
ADCP,ioos:station:wmo:42364:1,2013-11-07T23:30:00Z,29.0600,-88.0900,11.1,11111222 
ADCP,ioos:station:wmo:42364:1,2013-11-08T00:30:00Z,29.0600,-88.0900,11.1,11111222 
ADCP,ioos:station:wmo:42364:1,2013-11-08T01:30:00Z,29.0600,-88.0900,10.0,11111222 
ADCP,ioos:station:wmo:42364:1,2013-11-08T02:30:00Z,29.0600,-88.0900,10.6,11111222 
ADCP,ioos:station:wmo:42364:1,2013-11-08T03:30:00Z,29.0600,-88.0900,9.4,11111222 
ADCP,ioos:station:wmo:42364:1,2013-11-08T04:30:00Z,29.0600,-88.0900,8.9,11111222 
ADCP,ioos:station:wmo:42364:1,2013-11-08T05:30:00Z,29.0600,-88.0900,8.9,11111222 
ADCP,ioos:station:wmo:42364:1,2013-11-08T06:30:00Z,29.0600,-88.0900,8.9,11111222 
ADCP,ioos:station:wmo:42364:1,2013-11-08T07:30:00Z,29.0600,-88.0900,8.9,11111222 
ADCP,ioos:station:wmo:42364:1,2013-11-08T09:30:00Z,29.0600,-88.0900,8.9,11111222 
ADCP,ioos:station:wmo:42364:1,2013-11-08T10:30:00Z,29.0600,-88.0900,7.8,11111222 
ADCP,ioos:station:wmo:42364:1,2013-11-08T11:30:00Z,29.0600,-88.0900,8.3,11111222 
ADCP,ioos:station:wmo:42364:1,2013-11-08T12:30:00Z,29.0600,-88.0900,8.9,11111222 
ADCP,ioos:station:wmo:42364:1,2013-11-08T14:30:00Z,29.0600,-88.0900,8.9,11111222 
ADCP,ioos:station:wmo:42364:1,2013-11-08T15:30:00Z,29.0600,-88.0900,8.3,11111222 
ADCP,ioos:station:wmo:42364:1,2013-11-08T16:30:00Z,29.0600,-88.0900,9.4,11111222 
ADCP,ioos:station:wmo:42364:1,2013-11-08T17:30:00Z,29.0600,-88.0900,8.9,11111222 
ADCP,ioos:station:wmo:42364:1,2013-11-08T18:30:00Z,29.0600,-88.0900,10.0,11111222 
ADCP,ioos:station:wmo:42364:1,2013-11-08T19:30:00Z,29.0600,-88.0900,10.6,11111222 
ADCP,ioos:station:wmo:42364:1,2013-11-08T20:30:00Z,29.0600,-88.0900,10.0,11111222 
ADCP,ioos:station:wmo:42364:1,2013-11-08T21:30:00Z,29.0600,-88.0900,10.0,11111222 
ADCP,ioos:station:wmo:42364:1,2013-11-08T22:30:00Z,29.0600,-88.0900,10.6,11111222 
ADCP,ioos:station:wmo:42364:1,2013-11-08T23:30:00Z,29.0600,-88.0900,9.4,11111222 
ADCP,ioos:station:wmo:42364:1,2013-11-09T00:30:00Z,29.0600,-88.0900,10.0,11111222 
ADCP,ioos:station:wmo:42364:1,2013-11-09T01:30:00Z,29.0600,-88.0900,9.4,11111222 
ADCP,ioos:station:wmo:42364:1,2013-11-09T02:30:00Z,29.0600,-88.0900,9.4,11111222 
ADCP,ioos:station:wmo:42364:1,2013-11-09T03:30:00Z,29.0600,-88.0900,10.0,11111222 
ADCP,ioos:station:wmo:42364:1,2013-11-09T04:30:00Z,29.0600,-88.0900,11.1,11111222 
ADCP,ioos:station:wmo:42364:1,2013-11-09T05:30:00Z,29.0600,-88.0900,11.1,11111222 
ADCP,ioos:station:wmo:42364:1,2013-11-09T06:30:00Z,29.0600,-88.0900,11.7,11111222 
ADCP,ioos:station:wmo:42364:1,2013-11-09T07:30:00Z,29.0600,-88.0900,11.7,11111222 
ADCP,ioos:station:wmo:42364:1,2013-11-09T08:30:00Z,29.0600,-88.0900,12.2,11111222 
ADCP,ioos:station:wmo:42364:1,2013-11-09T09:30:00Z,29.0600,-88.0900,13.3,11111222 
ADCP,ioos:station:wmo:42364:1,2013-11-09T10:30:00Z,29.0600,-88.0900,13.9,11111222 
ADCP,ioos:station:wmo:42364:1,2013-11-09T11:30:00Z,29.0600,-88.0900,15.6,11111222 
ADCP,ioos:station:wmo:42364:1,2013-11-09T12:30:00Z,29.0600,-88.0900,15.6,11111222 
ADCP,ioos:station:wmo:42364:1,2013-11-09T13:30:00Z,29.0600,-88.0900,16.7,11111222 
ADCP,ioos:station:wmo:42364:1,2013-11-09T14:30:00Z,29.0600,-88.0900,16.1,11111222 
ADCP,ioos:station:wmo:42364:1,2013-11-09T15:30:00Z,29.0600,-88.0900,16.7,11111222 
ADCP,ioos:station:wmo:42364:1,2013-11-09T16:30:00Z,29.0600,-88.0900,17.2,11111222 
ADCP,ioos:station:wmo:42364:1,2013-11-09T17:30:00Z,29.0600,-88.0900,17.8,11111222 
ADCP,ioos:station:wmo:42364:1,2013-11-09T18:30:00Z,29.0600,-88.0900,17.2,11111222 
ADCP,ioos:station:wmo:42364:1,2013-11-09T19:30:00Z,29.0600,-88.0900,17.8,11111222 
ADCP,ioos:station:wmo:42364:1,2013-11-09T20:30:00Z,29.0600,-88.0900,18.9,11111222 
ADCP,ioos:station:wmo:42364:1,2013-11-09T21:30:00Z,29.0600,-88.0900,18.9,11111222 
ADCP,ioos:station:wmo:42364:1,2013-11-09T22:30:00Z,29.0600,-88.0900,18.9,11111222 
ADCP,ioos:station:wmo:42364:1,2013-11-09T23:30:00Z,29.0600,-88.0900,18.9,11111222 
ADCP,ioos:station:wmo:42364:1,2013-11-10T00:30:00Z,29.0600,-88.0900,18.9,11111222 
ADCP,ioos:station:wmo:42364:1,2013-11-10T01:30:00Z,29.0600,-88.0900,18.3,11111222 
ADCP,ioos:station:wmo:42364:1,2013-11-10T02:30:00Z,29.0600,-88.0900,18.3,11111222 
ADCP,ioos:station:wmo:42364:1,2013-11-10T03:30:00Z,29.0600,-88.0900,18.3,11111222 
ADCP,ioos:station:wmo:42364:1,2013-11-10T04:30:00Z,29.0600,-88.0900,17.8,11111222 
ADCP,ioos:station:wmo:42364:1,2013-11-10T05:30:00Z,29.0600,-88.0900,18.3,11111222 
ADCP,ioos:station:wmo:42364:1,2013-11-10T06:30:00Z,29.0600,-88.0900,17.8,11111222 
ADCP,ioos:station:wmo:42364:1,2013-11-10T07:30:00Z,29.0600,-88.0900,17.8,11111222 
ADCP,ioos:station:wmo:42364:1,2013-11-10T08:30:00Z,29.0600,-88.0900,18.3,11111222 
ADCP,ioos:station:wmo:42364:1,2013-11-10T09:30:00Z,29.0600,-88.0900,17.8,11111222 
ADCP,ioos:station:wmo:42364:1,2013-11-10T10:30:00Z,29.0600,-88.0900,17.8,11111222 
ADCP,ioos:station:wmo:42364:1,2013-11-10T11:30:00Z,29.0600,-88.0900,17.8,11111222 
ADCP,ioos:station:wmo:42364:1,2013-11-10T12:30:00Z,29.0600,-88.0900,17.8,11111222 
ADCP,ioos:station:wmo:42364:1,2013-11-10T13:30:00Z,29.0600,-88.0900,18.3,11111222 
ADCP,ioos:station:wmo:42364:1,2013-11-10T14:30:00Z,29.0600,-88.0900,17.8,11111222 
ADCP,ioos:station:wmo:42364:1,2013-11-10T15:30:00Z,29.0600,-88.0900,17.2,11111222 
ADCP,ioos:station:wmo:42364:1,2013-11-10T16:30:00Z,29.0600,-88.0900,17.2,11111222 
ADCP,ioos:station:wmo:42364:1,2013-11-10T17:30:00Z,29.0600,-88.0900,17.2,11111222 
ADCP,ioos:station:wmo:42364:1,2013-11-10T18:30:00Z,29.0600,-88.0900,17.2,11111222 
ADCP,ioos:station:wmo:42364:1,2013-11-10T19:30:00Z,29.0600,-88.0900,16.1,11111222 
ADCP,ioos:station:wmo:42364:1,2013-11-10T20:30:00Z,29.0600,-88.0900,16.1,11111222 
ADCP,ioos:station:wmo:42364:1,2013-11-10T21:30:00Z,29.0600,-88.0900,16.1,11111222 
ADCP,ioos:station:wmo:42364:1,2013-11-10T22:30:00Z,29.0600,-88.0900,16.7,11111222 
ADCP,ioos:station:wmo:42364:1,2013-11-10T23:30:00Z,29.0600,-88.0900,16.1,11111222 
ADCP,ioos:station:wmo:42364:1,2013-11-11T00:30:00Z,29.0600,-88.0900,16.1,11111222 
ADCP,ioos:station:wmo:42364:1,2013-11-11T01:30:00Z,29.0600,-88.0900,16.1,11111222 
ADCP,ioos:station:wmo:42364:1,2013-11-11T02:30:00Z,29.0600,-88.0900,14.4,11111222 
ADCP,ioos:station:wmo:42364:1,2013-11-11T03:30:00Z,29.0600,-88.0900,15.6,11111222 
ADCP,ioos:station:wmo:42364:1,2013-11-11T04:30:00Z,29.0600,-88.0900,15.0,11111222 
ADCP,ioos:station:wmo:42364:1,2013-11-11T05:30:00Z,29.0600,-88.0900,13.9,11111222 
ADCP,ioos:station:wmo:42364:1,2013-11-11T06:30:00Z,29.0600,-88.0900,15.6,11111222 
ADCP,ioos:station:wmo:42364:1,2013-11-11T07:30:00Z,29.0600,-88.0900,16.1,11111222 
ADCP,ioos:station:wmo:42364:1,2013-11-11T08:30:00Z,29.0600,-88.0900,16.1,11111222 
ADCP,ioos:station:wmo:42364:1,2013-11-11T09:30:00Z,29.0600,-88.0900,15.6,11111222 
ADCP,ioos:station:wmo:42364:1,2013-11-11T10:30:00Z,29.0600,-88.0900,15.6,11111222 
ADCP,ioos:station:wmo:42364:1,2013-11-11T11:30:00Z,29.0600,-88.0900,16.1,11111222 
ADCP,ioos:station:wmo:42364:1,2013-11-11T12:30:00Z,29.0600,-88.0900,16.7,11111222 
ADCP,ioos:station:wmo:42364:1,2013-11-11T13:30:00Z,29.0600,-88.0900,16.7,11111222 
ADCP,ioos:station:wmo:42364:1,2013-11-11T14:30:00Z,29.0600,-88.0900,16.1,11111222 
ADCP,ioos:station:wmo:42364:1,2013-11-11T15:30:00Z,29.0600,-88.0900,16.1,11111222 
ADCP,ioos:station:wmo:42364:1,2013-11-11T16:30:00Z,29.0600,-88.0900,15.6,11111222 
ADCP,ioos:station:wmo:42364:1,2013-11-11T17:30:00Z,29.0600,-88.0900,16.1,11111222 
ADCP,ioos:station:wmo:42364:1,2013-11-11T18:30:00Z,29.0600,-88.0900,15.6,11111222 
ADCP,ioos:station:wmo:42364:1,2013-11-11T19:30:00Z,29.0600,-88.0900,15.6,11111222 
ADCP,ioos:station:wmo:42364:1,2013-11-11T20:30:00Z,29.0600,-88.0900,15.6,11111222 
ADCP,ioos:station:wmo:42364:1,2013-11-11T21:30:00Z,29.0600,-88.0900,15.0,11111222 
ADCP,ioos:station:wmo:42364:1,2013-11-11T22:30:00Z,29.0600,-88.0900,15.6,11111222 
ADCP,ioos:station:wmo:42364:1,2013-11-11T23:30:00Z,29.0600,-88.0900,15.6,11111222 
ADCP,ioos:station:wmo:42364:1,2013-11-12T00:30:00Z,29.0600,-88.0900,15.0,11111222 
ADCP,ioos:station:wmo:42364:1,2013-11-12T01:30:00Z,29.0600,-88.0900,15.0,11111222 
ADCP,ioos:station:wmo:42364:1,2013-11-12T02:30:00Z,29.0600,-88.0900,14.4,11111222 
ADCP,ioos:station:wmo:42364:1,2013-11-12T03:30:00Z,29.0600,-88.0900,13.3,11111222 
ADCP,ioos:station:wmo:42364:1,2013-11-12T04:30:00Z,29.0600,-88.0900,13.9,11111222 
ADCP,ioos:station:wmo:42364:1,2013-11-12T05:30:00Z,29.0600,-88.0900,14.4,11111222 
ADCP,ioos:station:wmo:42364:1,2013-11-12T06:30:00Z,29.0600,-88.0900,13.9,11111222 
ADCP,ioos:station:wmo:42364:1,2013-11-12T07:30:00Z,29.0600,-88.0900,12.2,11111222 
ADCP,ioos:station:wmo:42364:1,2013-11-12T08:30:00Z,29.0600,-88.0900,12.8,11111222 
ADCP,ioos:station:wmo:42364:1,2013-11-12T09:30:00Z,29.0600,-88.0900,13.9,11111222 
ADCP,ioos:station:wmo:42364:1,2013-11-12T10:30:00Z,29.0600,-88.0900,13.9,11111222 
ADCP,ioos:station:wmo:42364:1,2013-11-12T11:30:00Z,29.0600,-88.0900,13.3,11111222 
ADCP,ioos:station:wmo:42364:1,2013-11-12T12:30:00Z,29.0600,-88.0900,12.2,11111222 
ADCP,ioos:station:wmo:42364:1,2013-11-12T13:30:00Z,29.0600,-88.0900,11.1,11111222 
ADCP,ioos:station:wmo:42364:1,2013-11-12T14:30:00Z,29.0600,-88.0900,12.2,11111222 
ADCP,ioos:station:wmo:42364:1,2013-11-12T15:30:00Z,29.0600,-88.0900,12.2,11111222 
ADCP,ioos:station:wmo:42364:1,2013-11-12T16:30:00Z,29.0600,-88.0900,12.2,11111222 
ADCP,ioos:station:wmo:42364:1,2013-11-12T17:30:00Z,29.0600,-88.0900,12.2,11111222 
ADCP,ioos:station:wmo:42364:1,2013-11-12T18:30:00Z,29.0600,-88.0900,11.1,11111222 
ADCP,ioos:station:wmo:42364:1,2013-11-12T19:30:00Z,29.0600,-88.0900,11.7,11111222 
ADCP,ioos:station:wmo:42364:1,2013-11-12T20:30:00Z,29.0600,-88.0900,11.1,11111222 
ADCP,ioos:station:wmo:42364:1,2013-11-12T21:30:00Z,29.0600,-88.0900,11.1,11111222 
ADCP,ioos:station:wmo:42364:1,2013-11-12T22:30:00Z,29.0600,-88.0900,11.7,11111222 
ADCP,ioos:station:wmo:42364:1,2013-11-12T23:30:00Z,29.0600,-88.0900,12.2,11111222 
ADCP,ioos:station:wmo:42364:1,2013-11-13T00:30:00Z,29.0600,-88.0900,11.1,11111222 
ADCP,ioos:station:wmo:42364:1,2013-11-13T01:30:00Z,29.0600,-88.0900,12.8,11111222 
ADCP,ioos:station:wmo:42364:1,2013-11-13T02:30:00Z,29.0600,-88.0900,11.7,11111222 
ADCP,ioos:station:wmo:42364:1,2013-11-13T03:30:00Z,29.0600,-88.0900,10.0,11111222 
ADCP,ioos:station:wmo:42364:1,2013-11-13T04:30:00Z,29.0600,-88.0900,8.3,11111222 
ADCP,ioos:station:wmo:42364:1,2013-11-13T05:30:00Z,29.0600,-88.0900,5.6,11111222 
ADCP,ioos:station:wmo:42364:1,2013-11-13T06:30:00Z,29.0600,-88.0900,5.0,11111222 
ADCP,ioos:station:wmo:42364:1,2013-11-13T07:30:00Z,29.0600,-88.0900,5.6,11111222 
ADCP,ioos:station:wmo:42364:1,2013-11-13T08:30:00Z,29.0600,-88.0900,5.6,11111222 
ADCP,ioos:station:wmo:42364:1,2013-11-13T10:30:00Z,29.0600,-88.0900,5.6,11111222 
ADCP,ioos:station:wmo:42364:1,2013-11-13T11:30:00Z,29.0600,-88.0900,6.1,11111222 
ADCP,ioos:station:wmo:42364:1,2013-11-13T12:30:00Z,29.0600,-88.0900,6.7,11111222 
ADCP,ioos:station:wmo:42364:1,2013-11-13T13:30:00Z,29.0600,-88.0900,6.1,11111222 
ADCP,ioos:station:wmo:42364:1,2013-11-13T14:30:00Z,29.0600,-88.0900,6.7,11111222 
ADCP,ioos:station:wmo:42364:1,2013-11-13T16:30:00Z,29.0600,-88.0900,6.7,11111222 
ADCP,ioos:station:wmo:42364:1,2013-11-13T18:30:00Z,29.0600,-88.0900,7.2,11111222 
ADCP,ioos:station:wmo:42364:1,2013-11-13T19:30:00Z,29.0600,-88.0900,7.2,11111222 
ADCP,ioos:station:wmo:42364:1,2013-11-13T20:30:00Z,29.0600,-88.0900,6.1,11111222 
ADCP,ioos:station:wmo:42364:1,2013-11-13T21:30:00Z,29.0600,-88.0900,6.1,11111222 
ADCP,ioos:station:wmo:42364:1,2013-11-13T22:30:00Z,29.0600,-88.0900,6.1,11111222 
ADCP,ioos:station:wmo:42364:1,2013-11-13T23:30:00Z,29.0600,-88.0900,5.0,11111222 
ADCP,ioos:station:wmo:42364:1,2013-11-14T00:30:00Z,29.0600,-88.0900,5.6,11111222 
ADCP,ioos:station:wmo:42364:1,2013-11-14T02:30:00Z,29.0600,-88.0900,5.6,11111222 
ADCP,ioos:station:wmo:42364:1,2013-11-14T03:30:00Z,29.0600,-88.0900,5.6,11111222 
ADCP,ioos:station:wmo:42364:1,2013-11-14T04:30:00Z,29.0600,-88.0900,6.1,11111222 
ADCP,ioos:station:wmo:42364:1,2013-11-14T05:30:00Z,29.0600,-88.0900,6.7,11111222 
ADCP,ioos:station:wmo:42364:1,2013-11-14T06:30:00Z,29.0600,-88.0900,6.7,11111222 
ADCP,ioos:station:wmo:42364:1,2013-11-14T07:30:00Z,29.0600,-88.0900,7.2,11111222 
ADCP,ioos:station:wmo:42364:1,2013-11-14T08:30:00Z,29.0600,-88.0900,8.9,11111222 
ADCP,ioos:station:wmo:42364:1,2013-11-14T09:30:00Z,29.0600,-88.0900,10.0,11111222 
ADCP,ioos:station:wmo:42364:1,2013-11-14T10:30:00Z,29.0600,-88.0900,8.9,11111222 
ADCP,ioos:station:wmo:42364:1,2013-11-14T11:30:00Z,29.0600,-88.0900,10.0,11111222 
ADCP,ioos:station:wmo:42364:1,2013-11-14T12:30:00Z,29.0600,-88.0900,11.7,11111222 
ADCP,ioos:station:wmo:42364:1,2013-11-14T13:30:00Z,29.0600,-88.0900,10.0,11111222 
ADCP,ioos:station:wmo:42364:1,2013-11-14T14:30:00Z,29.0600,-88.0900,13.3,11111222 
ADCP,ioos:station:wmo:42364:1,2013-11-14T15:30:00Z,29.0600,-88.0900,13.9,11111222 
ADCP,ioos:station:wmo:42364:1,2013-11-14T16:30:00Z,29.0600,-88.0900,13.3,11111222 
ADCP,ioos:station:wmo:42364:1,2013-11-14T17:30:00Z,29.0600,-88.0900,13.9,11111222 
ADCP,ioos:station:wmo:42364:1,2013-11-14T18:30:00Z,29.0600,-88.0900,12.2,11111222 
ADCP,ioos:station:wmo:42364:1,2013-11-14T19:30:00Z,29.0600,-88.0900,14.4,11111222 
ADCP,ioos:station:wmo:42364:1,2013-11-14T20:30:00Z,29.0600,-88.0900,14.4,11111222 
ADCP,ioos:station:wmo:42364:1,2013-11-14T22:30:00Z,29.0600,-88.0900,15.6,11111222 
ADCP,ioos:station:wmo:42364:1,2013-11-14T23:30:00Z,29.0600,-88.0900,16.1,11111222 
ADCP,ioos:station:wmo:42364:1,2013-11-15T00:30:00Z,29.0600,-88.0900,15.6,11111222 
ADCP,ioos:station:wmo:42364:1,2013-11-15T01:30:00Z,29.0600,-88.0900,16.1,11111222 
ADCP,ioos:station:wmo:42364:1,2013-11-15T02:30:00Z,29.0600,-88.0900,16.1,11111222 
ADCP,ioos:station:wmo:42364:1,2013-11-15T03:30:00Z,29.0600,-88.0900,16.7,11111222 
ADCP,ioos:station:wmo:42364:1,2013-11-15T04:30:00Z,29.0600,-88.0900,16.1,11111222 
ADCP,ioos:station:wmo:42364:1,2013-11-15T06:30:00Z,29.0600,-88.0900,16.1,11111222 
ADCP,ioos:station:wmo:42364:1,2013-11-15T07:30:00Z,29.0600,-88.0900,16.7,11111222 
ADCP,ioos:station:wmo:42364:1,2013-11-15T08:30:00Z,29.0600,-88.0900,17.2,11111222 
ADCP,ioos:station:wmo:42364:1,2013-11-15T09:30:00Z,29.0600,-88.0900,17.8,11111222 
ADCP,ioos:station:wmo:42364:1,2013-11-15T10:30:00Z,29.0600,-88.0900,17.8,11111222 
ADCP,ioos:station:wmo:42364:1,2013-11-15T12:30:00Z,29.0600,-88.0900,19.4,11111222 
ADCP,ioos:station:wmo:42364:1,2013-11-15T13:30:00Z,29.0600,-88.0900,18.9,11111222 
ADCP,ioos:station:wmo:42364:1,2013-11-15T14:30:00Z,29.0600,-88.0900,19.4,11111222 
ADCP,ioos:station:wmo:42364:1,2013-11-15T15:30:00Z,29.0600,-88.0900,20.0,11111222 
ADCP,ioos:station:wmo:42364:1,2013-11-15T16:30:00Z,29.0600,-88.0900,19.4,11111222 
ADCP,ioos:station:wmo:42364:1,2013-11-15T18:30:00Z,29.0600,-88.0900,18.9,11111222 
ADCP,ioos:station:wmo:42364:1,2013-11-15T19:30:00Z,29.0600,-88.0900,18.9,11111222 
ADCP,ioos:station:wmo:42364:1,2013-11-15T20:30:00Z,29.0600,-88.0900,18.3,11111222 
ADCP,ioos:station:wmo:42364:1,2013-11-15T21:30:00Z,29.0600,-88.0900,18.3,11111222 
ADCP,ioos:station:wmo:42364:1,2013-11-15T22:30:00Z,29.0600,-88.0900,17.8,11111222 
ADCP,ioos:station:wmo:42364:1,2013-11-15T23:30:00Z,29.0600,-88.0900,17.8,11111222 
ADCP,ioos:station:wmo:42364:1,2013-11-16T00:30:00Z,29.0600,-88.0900,18.3,11111222 
ADCP,ioos:station:wmo:42364:1,2013-11-16T01:30:00Z,29.0600,-88.0900,18.3,11111222 
ADCP,ioos:station:wmo:42364:1,2013-11-16T02:30:00Z,29.0600,-88.0900,18.3,11111222 
ADCP,ioos:station:wmo:42364:1,2013-11-16T04:30:00Z,29.0600,-88.0900,18.9,11111222 
ADCP,ioos:station:wmo:42364:1,2013-11-16T05:30:00Z,29.0600,-88.0900,18.3,11111222 
ADCP,ioos:station:wmo:42364:1,2013-11-16T06:30:00Z,29.0600,-88.0900,18.9,11111222 
ADCP,ioos:station:wmo:42364:1,2013-11-16T07:30:00Z,29.0600,-88.0900,19.4,11111222 
ADCP,ioos:station:wmo:42364:1,2013-11-16T08:30:00Z,29.0600,-88.0900,19.4,11111222 
ADCP,ioos:station:wmo:42364:1,2013-11-16T09:30:00Z,29.0600,-88.0900,18.9,11111222 